Location: Biltmore Gardens
(41.6070°N, 83.4666°W)
Time: 14:04:38
(UTC+00:00)

ERBS - Pass Details

Date: 14 July 2020
Orbit: 408 x 426 km, 57.0° (Epoch: 12 August)

Event Time Altitude Azimuth Distance (km) Brightness Sun altitude
Exits shadow 08:58:56 14° 189° (S) 1,242 4.2 -11.8°
Maximum altitude 09:01:18 33° 128° (SE) 711 3.5 -11.5°
Drops below altitude 10° 09:04:18 10° 63° (ENE) 1,474 6.4 -11.1°
Sets 09:06:29 0° 53° (NE) 2,339 8.2 -10.8°
